Weather History for Jefferson City, MO

Change the Weather History Date:

Friday, April 19, 2013

  Actual Average Record
Temperature  
Mean Temperature 44 °F -  
Max Temperature 52 °F 69 °F 88 °F (1929)
Min Temperature 36 °F 45 °F 27 °F (1949)
Degree Days  
Heating Degree Days 21    
Moisture  
Dew Point 25 °F    
Average Humidity 52    
Maximum Humidity 79    
Minimum Humidity 29    
Precipitation  
Precipitation 0.00 in - - ()
Sea Level Pressure  
Sea Level Pressure 29.93 in    
Wind  
Wind Speed 17 mph (West)    
Max Wind Speed 29 mph    
Max Gust Speed 36 mph    
Visibility 10 miles    
Events      
Averages and records for this station are not official NWS values.
T = Trace of Precipitation, MM = Missing Value Source: NWS Daily Summary

Daily Weather History Graph

Daily Weather History Graph

Search for Another Location

Airport:

Trip Planner

Search our weather history database for the weather conditions in past years. The results will help you decide how hot, cold, wet, or windy it might be!

Date:

Astronomy

Apr. 19, 2013 Rise Set
Actual Time 6:26 AM CDT 7:49 PM CDT
Civil Twilight 5:58 AM CDT 8:17 PM CDT
Nautical Twilight 5:25 AM CDT 8:50 PM CDT
Astronomical Twilight 4:50 AM CDT 9:25 PM CDT
Moon 1:38 PM CDT (4/19) 2:37 AM CDT (4/19)
Length of Visible Light 14h 18m
Length of Day
13h 22m
First Quarter, 62% of the Moon is Illuminated
Apr 19
First Quarter
Apr 25
Full
May 2
Last Quarter
May 9
New
May 17
First Quarter

Hourly Weather History & Observations

Time (CDT) Temp. Windchill Dew Point Humidity Pressure Visibility Wind Dir Wind Speed Gust Speed Precip Events Conditions
12:53 AM 39.9 °F 30.5 °F 26.1 °F 58% 29.83 in 10.0 mi WNW 19.6 mph 25.3 mph N/A   Overcast
1:53 AM 39.0 °F 29.9 °F 27.0 °F 62% 29.84 in 10.0 mi WNW 17.3 mph 25.3 mph N/A   Overcast
2:53 AM 39.0 °F 31.0 °F 27.0 °F 62% 29.83 in 10.0 mi WNW 13.8 mph 25.3 mph N/A   Overcast
3:53 AM 37.9 °F 27.9 °F 27.0 °F 65% 29.83 in 10.0 mi West 19.6 mph - N/A   Overcast
4:53 AM 37.9 °F 28.9 °F 26.1 °F 62% 29.84 in 10.0 mi West 16.1 mph 24.2 mph N/A   Overcast
5:53 AM 37.0 °F 27.7 °F 26.1 °F 65% 29.86 in 10.0 mi West 16.1 mph 27.6 mph N/A   Overcast
6:53 AM 37.0 °F 27.0 °F 25.0 °F 62% 29.89 in 10.0 mi West 18.4 mph 23.0 mph N/A   Overcast
7:53 AM 37.0 °F 28.1 °F 25.0 °F 62% 29.91 in 10.0 mi West 15.0 mph - N/A   Overcast
8:53 AM 39.0 °F 30.3 °F 25.0 °F 57% 29.91 in 10.0 mi West 16.1 mph 24.2 mph N/A   Scattered Clouds
9:53 AM 41.0 °F 32.2 °F 26.1 °F 55% 29.91 in 10.0 mi West 18.4 mph 25.3 mph N/A   Mostly Cloudy
10:53 AM 42.1 °F 33.3 °F 24.1 °F 49% 29.92 in 10.0 mi West 19.6 mph 28.8 mph N/A   Partly Cloudy
11:53 AM 45.0 °F 36.9 °F 24.1 °F 44% 29.93 in 10.0 mi West 20.7 mph 27.6 mph N/A   Scattered Clouds
12:53 PM 46.9 °F - 24.1 °F 41% 29.93 in 10.0 mi West 26.5 mph 34.5 mph N/A   Partly Cloudy
1:53 PM 48.0 °F - 23.0 °F 37% 29.93 in 10.0 mi West 21.9 mph 29.9 mph N/A   Partly Cloudy
2:53 PM 48.9 °F - 19.9 °F 32% 29.92 in 10.0 mi WNW 28.8 mph 35.7 mph N/A   Partly Cloudy
3:53 PM 51.1 °F - 21.0 °F 31% 29.93 in 10.0 mi West 21.9 mph 32.2 mph N/A   Scattered Clouds
4:53 PM 50.0 °F - 19.0 °F 29% 29.94 in 10.0 mi West 21.9 mph 29.9 mph N/A   Overcast
5:53 PM 50.0 °F - 21.0 °F 32% 29.96 in 10.0 mi WNW 17.3 mph 26.5 mph N/A   Overcast
6:53 PM 50.0 °F - 23.0 °F 35% 29.99 in 10.0 mi WNW 18.4 mph 25.3 mph N/A   Overcast
7:53 PM 46.9 °F - 26.1 °F 44% 30.00 in 10.0 mi WNW 6.9 mph - N/A   Mostly Cloudy
8:53 PM 46.0 °F 43.9 °F 28.0 °F 50% 30.02 in 10.0 mi NW 4.6 mph - N/A   Clear
9:53 PM 44.1 °F - 27.0 °F 51% 30.05 in 10.0 mi Calm Calm - N/A   Clear
10:53 PM 39.0 °F - 32.0 °F 76% 30.06 in 10.0 mi Calm Calm - N/A   Clear
11:53 PM 36.0 °F - 30.0 °F 79% 30.07 in 10.0 mi Calm Calm - N/A   Clear